Location: Newark
(52.1031°N, 9.3600°E)
Time: 15:38:16
(UTC+00:00)

nSIGHT-1 - Pass Details

Date: 22 December 2019
Orbit: 316 x 318 km, 51.6° (Epoch: 17 January)

Event Time Altitude Azimuth Distance (km) Brightness Sun altitude
Exits shadow 04:59:32 32° 122° (ESE) 577 ? -21.5°
Drops below altitude 10° 05:01:11 10° 111° (ESE) 1,220 ? -21.2°
Sets 05:03:09 0° 108° (ESE) 2,048 ? -20.9°
